K1VL Weather Reports


Display with metric or nautical units.
time (UTC)temp
F
wind
direction
speed
MPH
gust
MPH
rain 1hr
in
rain 24hr
in
rain mn
in
humidity
%
barometer
mb
20260505193036 74 248 7.0 22.0 0.00 0.00 0.00 40 1005.5
20260505192516 74 180 6.0 16.0 0.00 0.00 0.00 40 1005.5
20260505192016 74 203 6.0 15.0 0.00 0.00 0.00 40 1005.6
20260505191516 75 203 6.0 12.0 0.00 0.00 0.00 40 1005.4
20260505191016 75 203 7.0 18.0 0.00 0.00 0.00 40 1005.5
20260505190516 76 225 8.0 20.0 0.00 0.00 0.00 40 1005.6
20260505190036 76 180 6.0 16.0 0.00 0.00 0.00 40 1005.6
20260505185516 76 248 8.0 20.0 0.00 0.00 0.00 40 1005.6
20260505185016 76 203 7.0 18.0 0.00 0.00 0.00 39 1005.8
20260505184536 76 225 7.0 17.0 0.00 0.00 0.00 42 1006.0
20260505184016 75 180 8.0 15.0 0.00 0.00 0.00 41 1006.0
20260505183516 76 225 7.0 18.0 0.00 0.00 0.00 41 1006.1
20260505183016 76 135 7.0 17.0 0.00 0.00 0.00 41 1006.2
20260505182516 75 180 6.0 14.0 0.00 0.00 0.00 41 1006.0
20260505182016 75 270 6.0 17.0 0.00 0.00 0.00 41 1006.2
20260505181515 76 248 6.0 16.0 0.00 0.00 0.00 40 1006.2
20260505181016 76 158 7.0 15.0 0.00 0.00 0.00 41 1006.2
20260505180535 76 180 10.0 25.0 0.00 0.00 0.00 41 1006.3
20260505180016 77 180 8.0 20.0 0.00 0.00 0.00 39 1006.4
20260505175536 76 158 5.0 17.0 0.00 0.00 0.00 42 1006.4
20260505175036 76 135 8.0 19.0 0.00 0.00 0.00 41 1006.4
20260505174516 76 225 6.0 13.0 0.00 0.00 0.00 40 1006.5
20260505174036 76 158 7.0 15.0 0.00 0.00 0.00 42 1006.5
20260505173516 75 225 5.0 12.0 0.00 0.00 0.00 44 1006.6
20260505173016 75 180 6.0 15.0 0.00 0.00 0.00 42 1006.5
20260505172516 75 158 9.0 23.0 0.00 0.00 0.00 44 1006.8
20260505172016 75 158 7.0 21.0 0.00 0.00 0.00 43 1006.7
20260505171536 74 225 7.0 16.0 0.00 0.00 0.00 43 1006.8
20260505171015 74 180 8.0 21.0 0.00 0.00 0.00 45 1007.0
20260505170516 74 315 7.0 23.0 0.00 0.00 0.00 43 1007.0
20260505170016 74 225 7.0 20.0 0.00 0.00 0.00 45 1006.9
20260505165515 74 225 7.0 16.0 0.00 0.00 0.00 43 1007.2
20260505165015 74 158 8.0 20.0 0.00 0.00 0.00 43 1007.1
20260505164516 74 248 9.0 25.0 0.00 0.00 0.00 44 1007.4
20260505164016 75 225 7.0 22.0 0.00 0.00 0.00 44 1007.2
20260505163516 74 225 5.0 20.0 0.00 0.00 0.00 45 1007.3
20260505163016 73 270 6.0 11.0 0.00 0.00 0.00 46 1007.3
20260505162536 73 180 10.0 25.0 0.00 0.00 0.00 46 1007.6
20260505162016 73 180 8.0 23.0 0.00 0.00 0.00 45 1007.5
20260505161516 73 203 8.0 18.0 0.00 0.00 0.00 46 1007.5
20260505161036 73 203 7.0 19.0 0.00 0.00 0.00 46 1007.6
20260505160556 73 180 7.0 20.0 0.00 0.00 0.00 45 1007.6
20260505153016 70 135 7.0 17.0 0.00 0.00 0.00 50 1007.7
20260505152516 70 225 7.0 18.0 0.00 0.00 0.00 50 1007.8
20260505152015 69 248 9.0 20.0 0.00 0.00 0.00 51 1008.2
20260505151536 69 248 6.0 16.0 0.00 0.00 0.00 53 1008.1
20260505151016 69 203 5.0 13.0 0.00 0.00 0.00 54 1008.3
20260505150516 69 225 9.0 17.0 0.00 0.00 0.00 52 1008.7
20260505140516 66 225 3.0 9.0 0.00 0.00 0.00 57 1008.7
20260505125016 65 225 3.0 8.0 0.00 0.00 0.00 61 1008.6
20260505124516 65 225 3.0 10.0 0.00 0.00 0.00 60 1008.6
20260505124016 64 248 3.0 12.0 0.00 0.00 0.00 61 1008.5
20260505123516 64 248 2.0 8.0 0.00 0.00 0.00 61 1008.5
20260505123056 64 225 4.0 11.0 0.00 0.00 0.00 61 1008.4
20260505122516 64 270 3.0 9.0 0.00 0.00 0.00 61 1008.4
20260505122016 64 248 1.0 4.0 0.00 0.00 0.00 61 1008.4
20260505121516 64 293 2.0 8.0 0.00 0.00 0.00 59 1008.4
20260505121016 64 248 1.0 5.0 0.00 0.00 0.00 59 1008.5
20260505120516 64 203 1.0 5.0 0.00 0.00 0.00 61 1008.4
20260505120015 63 248 1.0 5.0 0.00 0.00 0.00 59 1008.6
20260505115536 63 248 1.0 5.0 0.00 0.00 0.00 60 1008.7
20260505115036 62 158 2.0 7.0 0.00 0.00 0.00 62 1008.7
20260505114516 61 248 3.0 7.0 0.00 0.00 0.00 63 1008.7
20260505114016 61 158 1.0 5.0 0.00 0.00 0.00 64 1008.6
20260505113516 60 225 1.0 4.0 0.00 0.00 0.00 63 1008.6
20260505113016 58 135 2.0 7.0 0.00 0.00 0.00 65 1008.6
20260505112516 57 113 2.0 4.0 0.00 0.00 0.00 67 1008.6
20260505112016 57 203 1.0 6.0 0.00 0.00 0.00 69 1008.8
20260505111516 56 225 1.0 5.0 0.00 0.00 0.00 70 1008.9
20260505111016 55 293 1.0 4.0 0.00 0.00 0.00 74 1008.9
20260505110516 55 0.0 2.0 0.00 0.00 0.00 75 1008.9
20260505102016 53 90 1.0 3.0 0.00 0.00 0.00 74 1008.4
20260505101536 53 0.0 3.0 0.00 0.00 0.00 75 1008.2
20260505101036 52 90 2.0 4.0 0.00 0.00 0.00 74 1008.2
20260505100537 53 90 1.0 3.0 0.00 0.00 0.00 74 1008.2
20260505100016 54 68 1.0 3.0 0.00 0.00 0.00 71 1008.3
20260505095516 53 90 1.0 4.0 0.00 0.00 0.00 71 1008.3
20260505095019 53 90 2.0 4.0 0.00 0.00 0.00 73 1008.4
20260505094516 52 90 2.0 5.0 0.00 0.00 0.00 72 1008.4
20260505094016 52 90 2.0 4.0 0.00 0.00 0.00 75 1008.3
20260505093516 52 90 1.0 4.0 0.00 0.00 0.00 74 1008.4
20260505093016 52 90 1.0 3.0 0.00 0.00 0.00 74 1008.5
20260505092516 53 90 1.0 3.0 0.00 0.00 0.00 72 1008.4
20260505092016 53 90 1.0 2.0 0.00 0.00 0.00 71 1008.4
20260505091516 54 90 1.0 3.0 0.00 0.00 0.00 70 1008.4
20260505091016 54 90 1.0 3.0 0.00 0.00 0.00 70 1008.4
20260505090516 54 0.0 2.0 0.00 0.00 0.00 69 1008.4
20260505090016 54 0.0 1.0 0.00 0.00 0.00 69 1008.4
20260505085516 54 90 1.0 2.0 0.00 0.00 0.00 66 1008.4
20260505085016 54 90 1.0 2.0 0.00 0.00 0.00 68 1008.4
20260505084516 54 113 1.0 3.0 0.00 0.00 0.00 67 1008.6
20260505084016 53 90 1.0 3.0 0.00 0.00 0.00 68 1008.5
20260505083536 53 90 1.0 2.0 0.00 0.00 0.00 71 1008.6
20260505083016 53 90 1.0 2.0 0.00 0.00 0.00 70 1008.6
20260505082516 53 0.0 2.0 0.00 0.00 0.00 71 1008.6
20260505082016 53 113 1.0 5.0 0.00 0.00 0.00 70 1008.6
20260505081516 53 113 1.0 4.0 0.00 0.00 0.00 71 1008.7
20260505081016 53 113 1.0 3.0 0.00 0.00 0.00 70 1008.7
20260505080516 53 135 1.0 3.0 0.00 0.00 0.00 69 1008.6
20260505080016 53 113 1.0 6.0 0.00 0.00 0.00 69 1008.5
20260505075516 53 90 1.0 5.0 0.00 0.00 0.00 69 1008.5
20260505075016 54 135 1.0 4.0 0.00 0.00 0.00 69 1008.6
20260505074536 54 113 1.0 3.0 0.00 0.00 0.00 66 1008.6
20260505074016 54 135 2.0 5.0 0.00 0.00 0.00 65 1008.5
20260505073516 54 113 2.0 4.0 0.00 0.00 0.00 65 1008.5
20260505073016 54 90 1.0 6.0 0.00 0.00 0.00 68 1008.5
20260505072516 55 90 1.0 2.0 0.00 0.00 0.00 66 1008.6
20260505072016 55 113 1.0 3.0 0.00 0.00 0.00 64 1008.7
20260505071516 55 113 1.0 3.0 0.00 0.00 0.00 64 1008.7
20260505071016 55 135 1.0 3.0 0.00 0.00 0.00 63 1008.7
20260505070516 55 113 2.0 6.0 0.00 0.00 0.00 63 1008.7
20260505070016 55 113 3.0 7.0 0.00 0.00 0.00 63 1008.7
20260505065536 55 90 1.0 5.0 0.00 0.00 0.00 64 1008.8
20260505065036 55 158 2.0 6.0 0.00 0.00 0.00 63 1008.8
20260505064516 54 135 1.0 4.0 0.00 0.00 0.00 64 1008.9
20260505064016 54 113 1.0 3.0 0.00 0.00 0.00 65 1008.9
20260505063516 54 113 1.0 5.0 0.00 0.00 0.00 65 1008.9
20260505063016 54 135 1.0 4.0 0.00 0.00 0.00 65 1008.9
20260505062536 54 135 1.0 4.0 0.00 0.00 0.00 64 1008.8
20260505062100 54 0.0 2.0 0.00 0.00 0.00 63 1008.8
20260505061520 54 68 1.0 4.0 0.00 0.00 0.00 64 1008.9
20260505061020 54 135 1.0 3.0 0.00 0.00 0.00 66 1008.8
20260505060520 53 113 2.0 5.0 0.00 0.00 0.00 64 1008.9
20260505060020 54 0.0 1.0 0.00 0.00 0.00 66 1009.0
20260505055536 55 90 2.0 8.0 0.00 0.00 0.00 63 1009.0
20260505055016 54 68 1.0 4.0 0.00 0.00 0.00 63 1009.0
20260505054516 55 68 1.0 3.0 0.00 0.00 0.00 62 1009.0
20260505054016 55 90 1.0 4.0 0.00 0.00 0.00 63 1009.0
20260505053516 56 135 2.0 10.0 0.00 0.00 0.00 63 1008.9
20260505053036 56 0.0 2.0 0.00 0.00 0.00 62 1009.0
20260505052516 56 0.0 2.0 0.00 0.00 0.00 59 1009.0
20260505052016 56 135 2.0 11.0 0.00 0.00 0.00 58 1009.0
20260505051516 56 158 4.0 11.0 0.00 0.00 0.00 59 1009.1
20260505051016 55 180 3.0 10.0 0.00 0.00 0.00 60 1009.1
20260505050556 55 68 1.0 8.0 0.00 0.00 0.00 61 1009.2
20260505041516 52 68 1.0 3.0 0.00 0.00 0.00 67 1009.0
20260505041016 50 68 1.0 6.0 0.00 0.00 0.00 69 1009.0
20260505040536 50 113 1.0 5.0 0.00 0.00 0.00 72 1009.0
20260505040017 50 68 1.0 3.0 0.00 0.00 0.00 71 1009.0
20260505035516 49 90 1.0 3.0 0.00 0.00 0.00 73 1008.9
20260505035016 48 68 1.0 3.0 0.00 0.00 0.00 76 1008.9
20260505034516 48 0.0 1.0 0.00 0.00 0.00 79 1008.8
20260505034016 48 0.0 2.0 0.00 0.00 0.00 79 1008.8
20260505033516 48 0.0 2.0 0.00 0.00 0.00 77 1008.9
20260505033016 48 113 1.0 3.0 0.00 0.00 0.00 76 1008.7
20260505032516 48 113 1.0 3.0 0.00 0.00 0.00 76 1008.8
20260505032016 47 90 1.0 5.0 0.00 0.00 0.00 78 1008.7
20260505031516 46 0.0 1.0 0.00 0.00 0.00 84 1008.8
20260505031016 47 0.0 1.0 0.00 0.00 0.00 84 1008.8
20260505030516 46 0.0 2.0 0.00 0.00 0.00 83 1008.8
20260505030016 46 0.0 2.0 0.00 0.00 0.00 85 1008.8
20260505025516 47 0.0 0.0 0.00 0.00 0.00 84 1008.9
20260505025016 47 0.0 1.0 0.00 0.00 0.00 82 1008.9
20260505024516 47 0.0 1.0 0.00 0.00 0.00 83 1008.9
20260505024016 47 0.0 1.0 0.00 0.00 0.00 83 1009.0
20260505023536 47 0.0 1.0 0.00 0.00 0.00 83 1008.9
20260505023016 47 0.0 1.0 0.00 0.00 0.00 82 1008.9
20260505022516 48 0.0 1.0 0.00 0.00 0.00 82 1008.9
20260505022016 48 0.0 0.0 0.00 0.00 0.00 81 1008.9
20260505021516 48 0.0 1.0 0.00 0.00 0.00 82 1008.9
20260505021016 49 0.0 0.0 0.00 0.00 0.00 81 1008.9
20260505020516 49 0.0 1.0 0.00 0.00 0.00 80 1008.9
20260505020016 49 0.0 2.0 0.00 0.00 0.00 78 1008.8
20260505015516 49 0.0 1.0 0.00 0.00 0.00 79 1008.8
20260505015016 49 0.0 1.0 0.00 0.00 0.00 79 1008.9
20260505014516 50 0.0 1.0 0.00 0.00 0.00 78 1008.9
20260505014016 50 0.0 1.0 0.00 0.00 0.00 77 1008.9
20260505013516 50 0.0 1.0 0.00 0.00 0.00 76 1008.8
20260505013016 50 0.0 1.0 0.00 0.00 0.00 76 1008.8
20260505012516 51 0.0 1.0 0.00 0.00 0.00 76 1008.7
20260505012016 51 0.0 0.0 0.00 0.00 0.00 75 1008.7
20260505011516 51 0.0 1.0 0.00 0.00 0.00 73 1008.8
20260505011016 52 0.0 0.0 0.00 0.00 0.00 71 1008.7
20260505010516 52 0.0 0.0 0.00 0.00 0.00 70 1008.6
20260505010016 53 0.0 1.0 0.00 0.00 0.00 69 1008.6
20260505005516 53 0.0 0.0 0.00 0.00 0.00 67 1008.6
20260505005036 54 0.0 1.0 0.00 0.00 0.00 65 1008.6
20260505004536 54 0.0 1.0 0.00 0.00 0.00 65 1008.5
20260505004016 55 0.0 0.0 0.00 0.00 0.00 64 1008.4
20260505003516 56 0.0 0.0 0.00 0.00 0.00 61 1008.4
20260505003016 57 0.0 1.0 0.00 0.00 0.00 61 1008.4
20260505002516 58 0.0 1.0 0.00 0.00 0.00 57 1008.4
20260505002016 59 0.0 2.0 0.00 0.00 0.00 53 1008.3
20260505001516 60 0.0 3.0 0.00 0.00 0.00 52 1008.2
20260505001016 60 225 1.0 4.0 0.00 0.00 0.00 50 1008.2
20260505000516 61 203 1.0 3.0 0.00 0.00 0.00 50 1008.1
20260505000016 60 225 2.0 8.0 0.00 0.00 0.00 49 1008.0
20260504235516 61 135 1.0 4.0 0.00 0.00 0.00 50 1008.0
20260504235016 61 270 1.0 4.0 0.00 0.00 0.00 49 1007.9
20260504234516 61 270 1.0 4.0 0.00 0.00 0.00 49 1007.8
20260504234016 61 338 2.0 9.0 0.00 0.00 0.00 49 1007.8
20260504233516 61 293 1.0 3.0 0.00 0.00 0.00 49 1007.7
20260504233016 62 248 1.0 7.0 0.00 0.00 0.00 48 1007.7
20260504232516 62 225 1.0 5.0 0.00 0.00 0.00 48 1007.6
20260504232016 62 113 1.0 3.0 0.00 0.00 0.00 48 1007.6
20260504231516 62 0.0 4.0 0.00 0.00 0.00 47 1007.5
20260504231016 62 225 3.0 8.0 0.00 0.00 0.00 47 1007.4
20260504230516 63 23 2.0 7.0 0.00 0.00 0.00 47 1007.4
20260504230016 63 293 2.0 6.0 0.00 0.00 0.00 47 1007.4
20260504225516 63 315 2.0 7.0 0.00 0.00 0.00 46 1007.3
20260504225016 64 315 2.0 6.0 0.00 0.00 0.00 46 1007.3
20260504224516 64 248 2.0 8.0 0.00 0.00 0.00 46 1007.2
20260504224016 64 248 2.0 6.0 0.00 0.00 0.00 44 1007.2
20260504223516 64 293 3.0 8.0 0.00 0.00 0.00 45 1007.2
20260504223016 65 270 3.0 12.0 0.00 0.00 0.00 44 1007.1
20260504222516 64 23 1.0 3.0 0.00 0.00 0.00 45 1007.1
20260504222016 64 158 2.0 7.0 0.00 0.00 0.00 44 1007.1
20260504221516 64 225 6.0 14.0 0.00 0.00 0.00 44 1007.1
20260504221016 64 248 4.0 9.0 0.00 0.00 0.00 45 1007.1
20260504220516 65 180 4.0 14.0 0.00 0.00 0.00 44 1007.2
20260504220016 65 293 2.0 9.0 0.00 0.00 0.00 43 1007.1
20260504215536 65 248 5.0 12.0 0.00 0.00 0.00 43 1007.1
20260504215016 66 248 4.0 14.0 0.00 0.00 0.00 43 1007.0
20260504214516 66 248 2.0 10.0 0.00 0.00 0.00 45 1007.0
20260504214016 65 293 5.0 11.0 0.00 0.00 0.00 42 1007.1
20260504213516 65 293 3.0 8.0 0.00 0.00 0.00 43 1007.0
20260504213016 65 180 6.0 13.0 0.00 0.00 0.00 43 1007.0
20260504212516 65 225 5.0 12.0 0.00 0.00 0.00 44 1007.0
20260504212016 65 203 5.0 10.0 0.00 0.00 0.00 44 1006.9
20260504211516 64 203 4.0 9.0 0.00 0.00 0.00 45 1007.0
20260504211016 64 180 5.0 14.0 0.00 0.00 0.00 44 1007.2
20260504210516 65 225 6.0 14.0 0.00 0.00 0.00 44 1007.2
20260504210016 66 203 4.0 11.0 0.00 0.00 0.00 44 1007.1
20260504205516 66 315 4.0 9.0 0.00 0.00 0.00 42 1007.1
20260504205016 65 225 2.0 9.0 0.00 0.00 0.00 43 1007.2
20260504204516 65 225 5.0 11.0 0.00 0.00 0.00 45 1007.1
20260504204016 64 338 3.0 11.0 0.00 0.00 0.00 46 1007.3
20260504203516 64 315 4.0 11.0 0.00 0.00 0.00 46 1007.2
20260504203016 64 315 6.0 13.0 0.00 0.00 0.00 44 1007.2
20260504202516 64 203 4.0 13.0 0.00 0.00 0.00 46 1007.2
20260504202036 63 248 4.0 13.0 0.00 0.00 0.00 46 1007.3
20260504201516 63 225 5.0 14.0 0.00 0.00 0.00 47 1007.4
20260504201016 63 225 4.0 10.0 0.00 0.00 0.00 46 1007.3
20260504200516 64 225 4.0 13.0 0.00 0.00 0.00 45 1007.5
20260504200016 65 315 3.0 11.0 0.00 0.00 0.00 44 1007.4
20260504195516 64 270 3.0 9.0 0.00 0.00 0.00 45 1007.4
20260504195016 64 180 4.0 13.0 0.00 0.00 0.00 46 1007.5
20260504194516 64 315 3.0 10.0 0.00 0.00 0.00 47 1007.5
20260504194016 64 315 8.0 19.0 0.00 0.00 0.00 46 1007.5
20260504193516 64 180 5.0 13.0 0.00 0.00 0.00 47 1007.6